Location: Bennemühlen
(52.5740°N, 9.7135°E)
Time: 10:26:17
(UTC+00:00)

Cosmos 1470 - Pass Details

Date: 19 May 2025
Orbit: 454 x 466 km, 82.5° (Epoch: 24 June)

Event Time Altitude Azimuth Distance (km) Brightness Sun altitude
Rises 23:04:26 0° 344° (NNW) 2,520 7.8 -17.4°
Maximum altitude 23:10:00 46° 265° (W) 643 3.1 -17.4°
Enters shadow 23:10:55 36° 222° (SW) 755 3.1 -17.4°
